Powrót do katalogu

TUBSAT A

AktywnyNaukaSSO
NORAD 21577·PAYLOAD·🇩🇪 Germany

Wystrzelony Jul 17, 1991 z Guiana Space Centre

Loading…

Następne Przeloty (najbliższe 24 godziny)

TLE

ŚwieżeSource: Space-Track

Epoka: Sep 14, 2026, 14:16 UTC

1 21577U 91050D   26257.59504061  .00000074  00000-0  36627-4 0  9998
2 21577  98.3749 325.5309 0006061   2.9056 357.2167 14.40572666846253

Śledź TUBSAT A w czasie rzeczywistym z AllMySat

Download on the App Store